NORTHEAST SUFFOLK  -  Freeze Watch Freeze Watch        NORTHWEST SUFFOLK  -  Freeze Watch Freeze Watch        SOUTHEAST SUFFOLK  -  Freeze Watch Freeze Watch        SOUTHWEST SUFFOLK  -  Freeze Watch Freeze Watch      

Active alerts

Northwest Suffolk
  Details for Northwest Suffolk Freeze Watch
Southwest Suffolk
  Details for Southwest Suffolk Freeze Watch
Northeast Suffolk
  Details for Northeast Suffolk Freeze Watch
Southeast Suffolk
  Details for Southeast Suffolk Freeze Watch


WXM80 ListenWXM80 Stop

You find our weather info also at:

UK Metoffice

WeatherCloud

Weather Underground

Northeastern Weather Network

AWEKAS

Citizen Weather Observer Program (CWOP)

HAMweather, WeatherForYou, PWS Weather


Weather Underground History page Text

Daily Summary for July 24, 2017 Units:  Both    English   Metric
« Previous Day
Next Day »
Daily Weekly Monthly Yearly Custom
  High: Low: Average:
Temperature: 70.7 °F /  21.5 °C 61.4 °F /  16.3 °C 65.6 °F /  18.7 °C
Dew Point: 67.7 °F /  19.8 °C 59.2 °F /  15.1 °C 63.4 °F /  17.4 °C
Humidity: 97 % 85 % 92 %
Wind Speed: 11.3 mph /  18.2 km/h - 3.9 mph /  6.3 km/h
Wind Gust: 19.6 mph /  31.5 km/h - -
Wind:- - ENE
Pressure: 29.92 in /  1013.1 hPa 29.71 in /  1006 hPa -
Precipitation: 0.54 in /  13.72 mm    
Historical Graphs
 
 
Tabular Data for July 24, 2017
Time Temperature Dew Point Pressure Wind Wind Speed Wind Gust Humidity Rainfall Rate (Hourly)
00:00 70.7 °F /  21.5 °C 66.0 °F /  18.9 °C 29.83 in /  1010 hPa SE 0.4 mph /  0.6 km/h 3.5 mph /  5.6 km/h 85 % 0.00 in /  0 mm
00:05 70.7 °F /  21.5 °C 66.0 °F /  18.9 °C 29.84 in /  1010.4 hPa SE 0.2 mph /  0.3 km/h 2.3 mph /  3.7 km/h 85 % 0.00 in /  0 mm
00:10 70.7 °F /  21.5 °C 66.0 °F /  18.9 °C 29.84 in /  1010.4 hPa SE 0.3 mph /  0.5 km/h 3.5 mph /  5.6 km/h 85 % 0.00 in /  0 mm
00:15 70.7 °F /  21.5 °C 66.0 °F /  18.9 °C 29.84 in /  1010.4 hPa SE 0.6 mph /  1 km/h 2.3 mph /  3.7 km/h 85 % 0.00 in /  0 mm
00:20 70.7 °F /  21.5 °C 66.3 °F /  19.1 °C 29.83 in /  1010 hPa SE 0.1 mph /  0.2 km/h 1.2 mph /  1.9 km/h 86 % 0.00 in /  0 mm
00:25 70.7 °F /  21.5 °C 66.3 °F /  19.1 °C 29.84 in /  1010.4 hPa SE 0.3 mph /  0.5 km/h 2.3 mph /  3.7 km/h 86 % 0.00 in /  0 mm
00:30 70.7 °F /  21.5 °C 66.6 °F /  19.2 °C 29.83 in /  1010 hPa Calm     87 % 0.00 in /  0 mm
00:35 70.7 °F /  21.5 °C 66.3 °F /  19.1 °C 29.82 in /  1009.7 hPa SE 0.1 mph /  0.2 km/h 1.2 mph /  1.9 km/h 86 % 0.00 in /  0 mm
00:40 70.7 °F /  21.5 °C 66.6 °F /  19.2 °C 29.81 in /  1009.4 hPa SE 0.9 mph /  1.4 km/h 2.3 mph /  3.7 km/h 87 % 0.00 in /  0 mm
00:45 70.6 °F /  21.4 °C 66.5 °F /  19.2 °C 29.81 in /  1009.4 hPa SE 0.5 mph /  0.8 km/h 3.0 mph /  4.8 km/h 87 % 0.00 in /  0 mm
00:50 70.6 °F /  21.4 °C 66.5 °F /  19.2 °C 29.81 in /  1009.4 hPa SE 0.8 mph /  1.3 km/h 2.3 mph /  3.7 km/h 87 % 0.00 in /  0 mm
00:55 70.5 °F /  21.4 °C 66.4 °F /  19.1 °C 29.81 in /  1009.4 hPa SE 0.5 mph /  0.8 km/h 2.0 mph /  3.2 km/h 87 % 0.00 in /  0 mm
01:00 70.5 °F /  21.4 °C 66.8 °F /  19.3 °C 29.80 in /  1009 hPa SE 1.0 mph /  1.6 km/h 2.3 mph /  3.7 km/h 88 % 0.00 in /  0 mm
01:05 70.5 °F /  21.4 °C 67.1 °F /  19.5 °C 29.80 in /  1009 hPa SE 1.5 mph /  2.4 km/h 3.5 mph /  5.6 km/h 89 % 0.00 in /  0 mm
01:10 70.5 °F /  21.4 °C 67.1 °F /  19.5 °C 29.80 in /  1009 hPa SE 2.2 mph /  3.5 km/h 3.5 mph /  5.6 km/h 89 % 0.00 in /  0 mm
01:15 70.6 °F /  21.4 °C 67.2 °F /  19.6 °C 29.80 in /  1009 hPa East 1.8 mph /  2.9 km/h 4.6 mph /  7.4 km/h 89 % 0.00 in /  0 mm
01:20 70.6 °F /  21.4 °C 67.2 °F /  19.6 °C 29.80 in /  1009 hPa East 1.8 mph /  2.9 km/h 3.5 mph /  5.6 km/h 89 % 0.00 in /  0 mm
01:25 70.6 °F /  21.4 °C 67.2 °F /  19.6 °C 29.80 in /  1009 hPa East 1.4 mph /  2.3 km/h 2.3 mph /  3.7 km/h 89 % 0.00 in /  0 mm
01:30 70.6 °F /  21.4 °C 67.2 °F /  19.6 °C 29.80 in /  1009 hPa East 1.9 mph /  3.1 km/h 3.5 mph /  5.6 km/h 89 % 0.00 in /  0 mm
01:35 70.6 °F /  21.4 °C 67.2 °F /  19.6 °C 29.80 in /  1009 hPa East 2.1 mph /  3.4 km/h 3.5 mph /  5.6 km/h 89 % 0.00 in /  0 mm
01:39 70.6 °F /  21.4 °C 67.2 °F /  19.6 °C 29.80 in /  1009 hPa East 1.8 mph /  2.9 km/h 3.5 mph /  5.6 km/h 89 % 0.00 in /  0 mm
01:44 70.7 °F /  21.5 °C 67.3 °F /  19.6 °C 29.80 in /  1009 hPa ESE 1.2 mph /  1.9 km/h 2.3 mph /  3.7 km/h 89 % 0.00 in /  0 mm
01:49 70.7 °F /  21.5 °C 67.3 °F /  19.6 °C 29.80 in /  1009 hPa ESE 1.5 mph /  2.4 km/h 3.5 mph /  5.6 km/h 89 % 0.00 in /  0 mm
01:54 70.7 °F /  21.5 °C 67.6 °F /  19.8 °C 29.80 in /  1009 hPa East 1.6 mph /  2.6 km/h 3.5 mph /  5.6 km/h 90 % 0.00 in /  0 mm
01:59 70.7 °F /  21.5 °C 67.6 °F /  19.8 °C 29.80 in /  1009 hPa East 1.1 mph /  1.8 km/h 2.3 mph /  3.7 km/h 90 % 0.00 in /  0 mm
02:04 70.6 °F /  21.4 °C 67.5 °F /  19.7 °C 29.80 in /  1009 hPa East 0.8 mph /  1.3 km/h 2.3 mph /  3.7 km/h 90 % 0.00 in /  0 mm
02:09 70.6 °F /  21.4 °C 67.5 °F /  19.7 °C 29.80 in /  1009 hPa East 0.6 mph /  1 km/h 2.3 mph /  3.7 km/h 90 % 0.00 in /  0 mm
02:14 70.5 °F /  21.4 °C 67.4 °F /  19.7 °C 29.80 in /  1009 hPa East 0.3 mph /  0.5 km/h 2.0 mph /  3.2 km/h 90 % 0.00 in /  0 mm
02:19 70.5 °F /  21.4 °C 67.4 °F /  19.7 °C 29.80 in /  1009 hPa East 0.3 mph /  0.5 km/h 1.2 mph /  1.9 km/h 90 % 0.00 in /  0 mm
02:24 70.4 °F /  21.3 °C 67.3 °F /  19.6 °C 29.80 in /  1009 hPa East 0.3 mph /  0.5 km/h 1.2 mph /  1.9 km/h 90 % 0.00 in /  0 mm
02:29 70.4 °F /  21.3 °C 67.0 °F /  19.4 °C 29.80 in /  1009 hPa East 0.1 mph /  0.2 km/h 1.2 mph /  1.9 km/h 89 % 0.00 in /  0 mm
02:34 70.4 °F /  21.3 °C 67.3 °F /  19.6 °C 29.80 in /  1009 hPa East 0.6 mph /  1 km/h 1.2 mph /  1.9 km/h 90 % 0.00 in /  0 mm
02:39 70.4 °F /  21.3 °C 67.3 °F /  19.6 °C 29.79 in /  1008.7 hPa East 0.7 mph /  1.1 km/h 2.3 mph /  3.7 km/h 90 % 0.00 in /  0 mm
02:44 70.3 °F /  21.3 °C 67.2 °F /  19.6 °C 29.79 in /  1008.7 hPa East 1.0 mph /  1.6 km/h 2.3 mph /  3.7 km/h 90 % 0.00 in /  0 mm
02:49 70.3 °F /  21.3 °C 67.2 °F /  19.6 °C 29.79 in /  1008.7 hPa ESE 0.8 mph /  1.3 km/h 2.3 mph /  3.7 km/h 90 % 0.00 in /  0 mm
02:54 70.3 °F /  21.3 °C 67.2 °F /  19.6 °C 29.79 in /  1008.7 hPa East 0.9 mph /  1.4 km/h 2.3 mph /  3.7 km/h 90 % 0.00 in /  0 mm
02:59 70.3 °F /  21.3 °C 67.5 °F /  19.7 °C 29.78 in /  1008.4 hPa East 0.9 mph /  1.4 km/h 2.3 mph /  3.7 km/h 91 % 0.00 in /  0 mm
03:04 70.2 °F /  21.2 °C 67.4 °F /  19.7 °C 29.77 in /  1008 hPa East 1.4 mph /  2.3 km/h 3.5 mph /  5.6 km/h 91 % 0.00 in /  0 mm
03:09 70.1 °F /  21.2 °C 67.7 °F /  19.8 °C 29.77 in /  1008 hPa East 1.9 mph /  3.1 km/h 3.5 mph /  5.6 km/h 92 % 0.00 in /  0 mm
03:14 69.9 °F /  21.1 °C 67.5 °F /  19.7 °C 29.77 in /  1008 hPa ESE 2.3 mph /  3.7 km/h 3.5 mph /  5.6 km/h 92 % 0.00 in /  0 mm
03:19 69.7 °F /  20.9 °C 67.3 °F /  19.6 °C 29.77 in /  1008 hPa ESE 1.5 mph /  2.4 km/h 3.5 mph /  5.6 km/h 92 % 0.00 in /  0 mm
03:24 69.6 °F /  20.9 °C 67.5 °F /  19.7 °C 29.77 in /  1008 hPa ESE 2.4 mph /  3.9 km/h 3.5 mph /  5.6 km/h 93 % 0.02 in /  0.51 mm
03:29 69.4 °F /  20.8 °C 67.3 °F /  19.6 °C 29.76 in /  1007.7 hPa ESE 2.2 mph /  3.5 km/h 3.5 mph /  5.6 km/h 93 % 0.02 in /  0.51 mm
03:34 69.4 °F /  20.8 °C 67.3 °F /  19.6 °C 29.76 in /  1007.7 hPa East 1.4 mph /  2.3 km/h 3.5 mph /  5.6 km/h 93 % 0.02 in /  0.51 mm
03:40 69.3 °F /  20.7 °C 67.5 °F /  19.7 °C 29.77 in /  1008 hPa ESE 0.7 mph /  1.1 km/h 2.3 mph /  3.7 km/h 94 % 0.02 in /  0.51 mm
03:45 69.2 °F /  20.7 °C 67.4 °F /  19.7 °C 29.77 in /  1008 hPa ESE 0.3 mph /  0.5 km/h 1.2 mph /  1.9 km/h 94 % 0.02 in /  0.51 mm
03:50 69.2 °F /  20.7 °C 67.4 °F /  19.7 °C 29.77 in /  1008 hPa ESE 0.3 mph /  0.5 km/h 2.3 mph /  3.7 km/h 94 % 0.02 in /  0.51 mm
03:55 69.1 °F /  20.6 °C 67.3 °F /  19.6 °C 29.77 in /  1008 hPa ESE 0.3 mph /  0.5 km/h 2.3 mph /  3.7 km/h 94 % 0.02 in /  0.51 mm
04:00 69.1 °F /  20.6 °C 67.3 °F /  19.6 °C 29.77 in /  1008 hPa ESE 0.9 mph /  1.4 km/h 2.3 mph /  3.7 km/h 94 % 0.02 in /  0.51 mm
04:05 69.0 °F /  20.6 °C 67.2 °F /  19.6 °C 29.77 in /  1008 hPa ESE 0.6 mph /  1 km/h 2.3 mph /  3.7 km/h 94 % 0.02 in /  0.51 mm
04:10 68.9 °F /  20.5 °C 67.1 °F /  19.5 °C 29.77 in /  1008 hPa ESE 0.1 mph /  0.2 km/h 1.2 mph /  1.9 km/h 94 % 0.02 in /  0.51 mm
04:15 68.9 °F /  20.5 °C 67.1 °F /  19.5 °C 29.77 in /  1008 hPa ESE 1.2 mph /  1.9 km/h 2.3 mph /  3.7 km/h 94 % 0.02 in /  0.51 mm
04:20 68.8 °F /  20.4 °C 67.0 °F /  19.4 °C 29.76 in /  1007.7 hPa East 1.4 mph /  2.3 km/h 3.5 mph /  5.6 km/h 94 % 0.01 in /  0.25 mm
04:25 68.8 °F /  20.4 °C 67.3 °F /  19.6 °C 29.77 in /  1008 hPa East 1.3 mph /  2.1 km/h 2.3 mph /  3.7 km/h 95 % 0.00 in /  0 mm
04:30 68.7 °F /  20.4 °C 66.9 °F /  19.4 °C 29.76 in /  1007.7 hPa East 1.7 mph /  2.7 km/h 3.5 mph /  5.6 km/h 94 % 0.00 in /  0 mm
04:35 68.7 °F /  20.4 °C 66.9 °F /  19.4 °C 29.76 in /  1007.7 hPa SE 1.4 mph /  2.3 km/h 3.5 mph /  5.6 km/h 94 % 0.00 in /  0 mm
04:40 68.7 °F /  20.4 °C 67.2 °F /  19.6 °C 29.76 in /  1007.7 hPa ENE 2.0 mph /  3.2 km/h 3.5 mph /  5.6 km/h 95 % 0.00 in /  0 mm
04:41 68.7 °F /  20.4 °C 67.2 °F /  19.6 °C 29.75 in /  1007.3 hPa ENE 1.6 mph /  2.6 km/h 3.5 mph /  5.6 km/h 95 % 0.00 in /  0 mm
04:46 68.7 °F /  20.4 °C 67.2 °F /  19.6 °C 29.75 in /  1007.3 hPa East 2.6 mph /  4.2 km/h 3.5 mph /  5.6 km/h 95 % 0.00 in /  0 mm
04:51 68.6 °F /  20.3 °C 67.1 °F /  19.5 °C 29.75 in /  1007.3 hPa East 1.7 mph /  2.7 km/h 3.5 mph /  5.6 km/h 95 % 0.00 in /  0 mm
04:56 68.6 °F /  20.3 °C 67.1 °F /  19.5 °C 29.75 in /  1007.3 hPa ESE 1.9 mph /  3.1 km/h 3.5 mph /  5.6 km/h 95 % 0.00 in /  0 mm
05:01 68.5 °F /  20.3 °C 67.0 °F /  19.4 °C 29.75 in /  1007.3 hPa East 2.3 mph /  3.7 km/h 4.6 mph /  7.4 km/h 95 % 0.00 in /  0 mm
05:06 68.5 °F /  20.3 °C 67.0 °F /  19.4 °C 29.75 in /  1007.3 hPa East 2.1 mph /  3.4 km/h 3.5 mph /  5.6 km/h 95 % 0.00 in /  0 mm
05:11 68.5 °F /  20.3 °C 67.0 °F /  19.4 °C 29.74 in /  1007 hPa East 3.1 mph /  5 km/h 5.0 mph /  8 km/h 95 % 0.01 in /  0.25 mm
05:16 68.4 °F /  20.2 °C 66.9 °F /  19.4 °C 29.73 in /  1006.7 hPa East 3.9 mph /  6.3 km/h 5.0 mph /  8 km/h 95 % 0.01 in /  0.25 mm
05:21 68.3 °F /  20.2 °C 66.8 °F /  19.3 °C 29.74 in /  1007 hPa East 4.1 mph /  6.6 km/h 5.8 mph /  9.3 km/h 95 % 0.01 in /  0.25 mm
05:26 68.2 °F /  20.1 °C 66.7 °F /  19.3 °C 29.74 in /  1007 hPa East 3.0 mph /  4.8 km/h 5.8 mph /  9.3 km/h 95 % 0.01 in /  0.25 mm
05:31 68.1 °F /  20.1 °C 66.6 °F /  19.2 °C 29.74 in /  1007 hPa East 2.3 mph /  3.7 km/h 5.0 mph /  8 km/h 95 % 0.01 in /  0.25 mm
05:36 68.0 °F /  20 °C 66.2 °F /  19 °C 29.75 in /  1007.3 hPa ESE 2.1 mph /  3.4 km/h 3.5 mph /  5.6 km/h 94 % 0.01 in /  0.25 mm
05:41 67.9 °F /  19.9 °C 66.4 °F /  19.1 °C 29.75 in /  1007.3 hPa ESE 2.4 mph /  3.9 km/h 3.5 mph /  5.6 km/h 95 % 0.02 in /  0.51 mm
05:46 67.9 °F /  19.9 °C 66.4 °F /  19.1 °C 29.75 in /  1007.3 hPa East 2.4 mph /  3.9 km/h 3.5 mph /  5.6 km/h 95 % 0.02 in /  0.51 mm
05:51 68.0 °F /  20 °C 66.5 °F /  19.2 °C 29.75 in /  1007.3 hPa East 1.5 mph /  2.4 km/h 3.5 mph /  5.6 km/h 95 % 0.03 in /  0.76 mm
05:57 68.0 °F /  20 °C 66.5 °F /  19.2 °C 29.75 in /  1007.3 hPa East 1.3 mph /  2.1 km/h 2.3 mph /  3.7 km/h 95 % 0.04 in /  1.02 mm
06:02 68.0 °F /  20 °C 66.5 °F /  19.2 °C 29.74 in /  1007 hPa East 2.2 mph /  3.5 km/h 3.5 mph /  5.6 km/h 95 % 0.04 in /  1.02 mm
06:07 68.0 °F /  20 °C 66.5 °F /  19.2 °C 29.74 in /  1007 hPa East 2.8 mph /  4.5 km/h 4.6 mph /  7.4 km/h 95 % 0.05 in /  1.27 mm
06:12 67.9 °F /  19.9 °C 66.7 °F /  19.3 °C 29.75 in /  1007.3 hPa ESE 1.8 mph /  2.9 km/h 3.5 mph /  5.6 km/h 96 % 0.05 in /  1.27 mm
06:17 67.9 °F /  19.9 °C 66.7 °F /  19.3 °C 29.75 in /  1007.3 hPa East 1.9 mph /  3.1 km/h 3.5 mph /  5.6 km/h 96 % 0.06 in /  1.52 mm
06:22 67.9 °F /  19.9 °C 66.7 °F /  19.3 °C 29.75 in /  1007.3 hPa East 1.8 mph /  2.9 km/h 3.5 mph /  5.6 km/h 96 % 0.07 in /  1.78 mm
06:27 67.9 °F /  19.9 °C 66.7 °F /  19.3 °C 29.74 in /  1007 hPa East 2.2 mph /  3.5 km/h 3.5 mph /  5.6 km/h 96 % 0.08 in /  2.03 mm
06:32 67.9 °F /  19.9 °C 66.7 °F /  19.3 °C 29.74 in /  1007 hPa East 1.6 mph /  2.6 km/h 3.5 mph /  5.6 km/h 96 % 0.09 in /  2.29 mm
06:37 67.9 °F /  19.9 °C 66.7 °F /  19.3 °C 29.74 in /  1007 hPa East 2.9 mph /  4.7 km/h 5.0 mph /  8 km/h 96 % 0.09 in /  2.29 mm
06:42 67.7 °F /  19.8 °C 66.5 °F /  19.2 °C 29.72 in /  1006.3 hPa East 2.6 mph /  4.2 km/h 4.6 mph /  7.4 km/h 96 % 0.09 in /  2.29 mm
06:47 67.7 °F /  19.8 °C 66.5 °F /  19.2 °C 29.73 in /  1006.7 hPa East 2.0 mph /  3.2 km/h 3.5 mph /  5.6 km/h 96 % 0.09 in /  2.29 mm
06:53 67.8 °F /  19.9 °C 66.9 °F /  19.4 °C 29.74 in /  1007 hPa East 0.9 mph /  1.4 km/h 2.3 mph /  3.7 km/h 97 % 0.09 in /  2.29 mm
06:58 67.8 °F /  19.9 °C 66.9 °F /  19.4 °C 29.73 in /  1006.7 hPa East 1.0 mph /  1.6 km/h 2.0 mph /  3.2 km/h 97 % 0.08 in /  2.03 mm
07:03 67.9 °F /  19.9 °C 67.0 °F /  19.4 °C 29.73 in /  1006.7 hPa East 1.8 mph /  2.9 km/h 4.6 mph /  7.4 km/h 97 % 0.08 in /  2.03 mm
07:08 67.9 °F /  19.9 °C 67.0 °F /  19.4 °C 29.72 in /  1006.3 hPa East 2.2 mph /  3.5 km/h 3.5 mph /  5.6 km/h 97 % 0.08 in /  2.03 mm
07:13 67.9 °F /  19.9 °C 67.0 °F /  19.4 °C 29.73 in /  1006.7 hPa East 1.8 mph /  2.9 km/h 3.5 mph /  5.6 km/h 97 % 0.07 in /  1.78 mm
07:18 67.8 °F /  19.9 °C 66.9 °F /  19.4 °C 29.73 in /  1006.7 hPa East 2.3 mph /  3.7 km/h 3.5 mph /  5.6 km/h 97 % 0.06 in /  1.52 mm
07:23 67.8 °F /  19.9 °C 66.9 °F /  19.4 °C 29.73 in /  1006.7 hPa East 2.5 mph /  4 km/h 4.6 mph /  7.4 km/h 97 % 0.07 in /  1.78 mm
07:28 67.7 °F /  19.8 °C 66.8 °F /  19.3 °C 29.72 in /  1006.3 hPa East 2.0 mph /  3.2 km/h 3.5 mph /  5.6 km/h 97 % 0.06 in /  1.52 mm
07:33 67.8 °F /  19.9 °C 66.9 °F /  19.4 °C 29.72 in /  1006.3 hPa ENE 2.2 mph /  3.5 km/h 3.5 mph /  5.6 km/h 97 % 0.06 in /  1.52 mm
07:38 67.8 °F /  19.9 °C 66.9 °F /  19.4 °C 29.72 in /  1006.3 hPa East 2.9 mph /  4.7 km/h 4.6 mph /  7.4 km/h 97 % 0.06 in /  1.52 mm
07:43 67.8 °F /  19.9 °C 66.9 °F /  19.4 °C 29.72 in /  1006.3 hPa NE 3.0 mph /  4.8 km/h 4.6 mph /  7.4 km/h 97 % 0.06 in /  1.52 mm
07:48 67.7 °F /  19.8 °C 66.8 °F /  19.3 °C 29.73 in /  1006.7 hPa ENE 2.3 mph /  3.7 km/h 3.5 mph /  5.6 km/h 97 % 0.06 in /  1.52 mm
07:53 67.6 °F /  19.8 °C 66.7 °F /  19.3 °C 29.73 in /  1006.7 hPa East 2.5 mph /  4 km/h 3.5 mph /  5.6 km/h 97 % 0.05 in /  1.27 mm
07:58 67.6 °F /  19.8 °C 66.7 °F /  19.3 °C 29.73 in /  1006.7 hPa ENE 2.9 mph /  4.7 km/h 4.6 mph /  7.4 km/h 97 % 0.06 in /  1.52 mm
08:03 67.6 °F /  19.8 °C 66.7 °F /  19.3 °C 29.73 in /  1006.7 hPa East 3.9 mph /  6.3 km/h 5.8 mph /  9.3 km/h 97 % 0.05 in /  1.27 mm
08:09 67.5 °F /  19.7 °C 66.6 °F /  19.2 °C 29.73 in /  1006.7 hPa East 3.4 mph /  5.5 km/h 5.8 mph /  9.3 km/h 97 % 0.04 in /  1.02 mm
08:14 67.5 °F /  19.7 °C 66.6 °F /  19.2 °C 29.72 in /  1006.3 hPa ENE 3.4 mph /  5.5 km/h 5.8 mph /  9.3 km/h 97 % 0.04 in /  1.02 mm
08:19 67.5 °F /  19.7 °C 66.6 °F /  19.2 °C 29.72 in /  1006.3 hPa ENE 3.8 mph /  6.1 km/h 5.0 mph /  8 km/h 97 % 0.03 in /  0.76 mm
08:24 67.5 °F /  19.7 °C 66.6 °F /  19.2 °C 29.72 in /  1006.3 hPa East 3.8 mph /  6.1 km/h 5.0 mph /  8 km/h 97 % 0.03 in /  0.76 mm
08:29 67.5 °F /  19.7 °C 66.6 °F /  19.2 °C 29.72 in /  1006.3 hPa East 4.5 mph /  7.2 km/h 5.8 mph /  9.3 km/h 97 % 0.02 in /  0.51 mm
08:34 67.5 °F /  19.7 °C 66.6 °F /  19.2 °C 29.73 in /  1006.7 hPa East 4.5 mph /  7.2 km/h 6.9 mph /  11.1 km/h 97 % 0.02 in /  0.51 mm
08:39 67.5 °F /  19.7 °C 66.6 °F /  19.2 °C 29.73 in /  1006.7 hPa East 4.4 mph /  7.1 km/h 6.9 mph /  11.1 km/h 97 % 0.02 in /  0.51 mm
08:44 67.5 °F /  19.7 °C 66.6 °F /  19.2 °C 29.72 in /  1006.3 hPa ENE 4.6 mph /  7.4 km/h 5.0 mph /  8 km/h 97 % 0.01 in /  0.25 mm
08:49 67.4 °F /  19.7 °C 66.5 °F /  19.2 °C 29.73 in /  1006.7 hPa East 4.5 mph /  7.2 km/h 6.9 mph /  11.1 km/h 97 % 0.01 in /  0.25 mm
08:54 67.4 °F /  19.7 °C 66.5 °F /  19.2 °C 29.72 in /  1006.3 hPa ENE 5.1 mph /  8.2 km/h 5.8 mph /  9.3 km/h 97 % 0.01 in /  0.25 mm
08:59 67.4 °F /  19.7 °C 66.5 °F /  19.2 °C 29.73 in /  1006.7 hPa ENE 4.3 mph /  6.9 km/h 5.0 mph /  8 km/h 97 % 0.00 in /  0 mm
09:04 67.3 °F /  19.6 °C 66.4 °F /  19.1 °C 29.73 in /  1006.7 hPa ENE 4.6 mph /  7.4 km/h 6.0 mph /  9.7 km/h 97 % 0.00 in /  0 mm
09:09 67.3 °F /  19.6 °C 66.4 °F /  19.1 °C 29.73 in /  1006.7 hPa NNE 4.9 mph /  7.9 km/h 6.9 mph /  11.1 km/h 97 % 0.00 in /  0 mm
09:15 67.1 °F /  19.5 °C 66.2 °F /  19 °C 29.72 in /  1006.3 hPa East 4.6 mph /  7.4 km/h 6.9 mph /  11.1 km/h 97 % 0.00 in /  0 mm
09:20 67.0 °F /  19.4 °C 66.1 °F /  18.9 °C 29.72 in /  1006.3 hPa ENE 6.1 mph /  9.8 km/h 10.4 mph /  16.7 km/h 97 % 0.01 in /  0.25 mm
09:25 66.9 °F /  19.4 °C 66.0 °F /  18.9 °C 29.71 in /  1006 hPa ENE 5.3 mph /  8.5 km/h 8.1 mph /  13 km/h 97 % 0.01 in /  0.25 mm
09:30 66.6 °F /  19.2 °C 65.7 °F /  18.7 °C 29.71 in /  1006 hPa ENE 9.5 mph /  15.3 km/h 18.4 mph /  29.6 km/h 97 % 0.01 in /  0.25 mm
09:35 66.3 °F /  19.1 °C 65.4 °F /  18.6 °C 29.71 in /  1006 hPa East 5.7 mph /  9.2 km/h 9.2 mph /  14.8 km/h 97 % 0.01 in /  0.25 mm
09:40 66.2 °F /  19 °C 65.3 °F /  18.5 °C 29.71 in /  1006 hPa ENE 8.8 mph /  14.2 km/h 11.5 mph /  18.5 km/h 97 % 0.01 in /  0.25 mm
09:45 65.8 °F /  18.8 °C 64.9 °F /  18.3 °C 29.71 in /  1006 hPa East 7.5 mph /  12.1 km/h 11.5 mph /  18.5 km/h 97 % 0.01 in /  0.25 mm
09:50 65.6 °F /  18.7 °C 64.7 °F /  18.2 °C 29.72 in /  1006.3 hPa ENE 6.8 mph /  10.9 km/h 11.5 mph /  18.5 km/h 97 % 0.01 in /  0.25 mm
09:55 65.3 °F /  18.5 °C 64.4 °F /  18 °C 29.72 in /  1006.3 hPa ENE 10.3 mph /  16.6 km/h 16.1 mph /  25.9 km/h 97 % 0.01 in /  0.25 mm
10:00 65.0 °F /  18.3 °C 64.1 °F /  17.8 °C 29.72 in /  1006.3 hPa East 11.3 mph /  18.2 km/h 16.1 mph /  25.9 km/h 97 % 0.01 in /  0.25 mm
10:05 64.6 °F /  18.1 °C 63.4 °F /  17.4 °C 29.72 in /  1006.3 hPa East 8.9 mph /  14.3 km/h 17.0 mph /  27.4 km/h 96 % 0.01 in /  0.25 mm
10:10 64.4 °F /  18 °C 63.5 °F /  17.5 °C 29.73 in /  1006.7 hPa East 7.8 mph /  12.6 km/h 11.5 mph /  18.5 km/h 97 % 0.01 in /  0.25 mm
10:15 64.4 °F /  18 °C 63.2 °F /  17.3 °C 29.73 in /  1006.7 hPa East 10.9 mph /  17.5 km/h 19.6 mph /  31.5 km/h 96 % 0.00 in /  0 mm
10:16 64.3 °F /  17.9 °C 63.1 °F /  17.3 °C 29.73 in /  1006.7 hPa ENE 8.4 mph /  13.5 km/h 15.0 mph /  24.1 km/h 96 % 0.00 in /  0 mm
10:21 64.1 °F /  17.8 °C 62.9 °F /  17.2 °C 29.72 in /  1006.3 hPa NE 10.8 mph /  17.4 km/h 17.3 mph /  27.8 km/h 96 % 0.00 in /  0 mm
10:26 64.0 °F /  17.8 °C 62.8 °F /  17.1 °C 29.73 in /  1006.7 hPa East 9.7 mph /  15.6 km/h 13.0 mph /  20.9 km/h 96 % 0.00 in /  0 mm
10:31 63.8 °F /  17.7 °C 62.6 °F /  17 °C 29.73 in /  1006.7 hPa East 8.7 mph /  14 km/h 12.0 mph /  19.3 km/h 96 % 0.01 in /  0.25 mm
10:36 63.7 °F /  17.6 °C 62.5 °F /  16.9 °C 29.73 in /  1006.7 hPa East 8.4 mph /  13.5 km/h 12.7 mph /  20.4 km/h 96 % 0.01 in /  0.25 mm
10:41 63.6 °F /  17.6 °C 62.4 °F /  16.9 °C 29.74 in /  1007 hPa ENE 4.2 mph /  6.8 km/h 16.1 mph /  25.9 km/h 96 % 0.01 in /  0.25 mm
10:46 63.6 °F /  17.6 °C 62.4 °F /  16.9 °C 29.74 in /  1007 hPa East 6.8 mph /  10.9 km/h 12.7 mph /  20.4 km/h 96 % 0.01 in /  0.25 mm
10:51 63.6 °F /  17.6 °C 62.4 °F /  16.9 °C 29.74 in /  1007 hPa ENE 8.1 mph /  13 km/h 12.7 mph /  20.4 km/h 96 % 0.01 in /  0.25 mm
10:56 63.5 °F /  17.5 °C 62.3 °F /  16.8 °C 29.74 in /  1007 hPa ENE 7.6 mph /  12.2 km/h 12.7 mph /  20.4 km/h 96 % 0.01 in /  0.25 mm
11:01 63.5 °F /  17.5 °C 62.3 °F /  16.8 °C 29.74 in /  1007 hPa ENE 9.4 mph /  15.1 km/h 16.0 mph /  25.7 km/h 96 % 0.01 in /  0.25 mm
11:07 63.5 °F /  17.5 °C 62.3 °F /  16.8 °C 29.74 in /  1007 hPa ENE 7.6 mph /  12.2 km/h 11.0 mph /  17.7 km/h 96 % 0.01 in /  0.25 mm
11:12 63.4 °F /  17.4 °C 62.5 °F /  16.9 °C 29.74 in /  1007 hPa East 7.4 mph /  11.9 km/h 12.7 mph /  20.4 km/h 97 % 0.01 in /  0.25 mm
11:17 63.2 °F /  17.3 °C 62.0 °F /  16.7 °C 29.74 in /  1007 hPa ENE 10.8 mph /  17.4 km/h 17.3 mph /  27.8 km/h 96 % 0.02 in /  0.51 mm
11:22 63.2 °F /  17.3 °C 62.0 °F /  16.7 °C 29.75 in /  1007.3 hPa ENE 9.4 mph /  15.1 km/h 13.8 mph /  22.2 km/h 96 % 0.02 in /  0.51 mm
11:27 63.0 °F /  17.2 °C 61.8 °F /  16.6 °C 29.76 in /  1007.7 hPa NE 5.5 mph /  8.9 km/h 13.8 mph /  22.2 km/h 96 % 0.02 in /  0.51 mm
11:32 63.0 °F /  17.2 °C 61.8 °F /  16.6 °C 29.76 in /  1007.7 hPa NE 5.4 mph /  8.7 km/h 11.5 mph /  18.5 km/h 96 % 0.01 in /  0.25 mm
11:37 63.0 °F /  17.2 °C 61.8 °F /  16.6 °C 29.75 in /  1007.3 hPa East 9.2 mph /  14.8 km/h 16.1 mph /  25.9 km/h 96 % 0.02 in /  0.51 mm
11:42 62.8 °F /  17.1 °C 61.6 °F /  16.4 °C 29.75 in /  1007.3 hPa East 9.5 mph /  15.3 km/h 16.1 mph /  25.9 km/h 96 % 0.02 in /  0.51 mm
11:47 62.7 °F /  17.1 °C 61.5 °F /  16.4 °C 29.75 in /  1007.3 hPa ENE 7.4 mph /  11.9 km/h 15.0 mph /  24.1 km/h 96 % 0.03 in /  0.76 mm
11:52 62.7 °F /  17.1 °C 61.8 °F /  16.6 °C 29.76 in /  1007.7 hPa ENE 5.8 mph /  9.3 km/h 12.7 mph /  20.4 km/h 97 % 0.03 in /  0.76 mm
11:57 62.7 °F /  17.1 °C 61.8 °F /  16.6 °C 29.76 in /  1007.7 hPa East 8.4 mph /  13.5 km/h 17.3 mph /  27.8 km/h 97 % 0.04 in /  1.02 mm
12:02 62.6 °F /  17 °C 61.7 °F /  16.5 °C 29.76 in /  1007.7 hPa NE 6.8 mph /  10.9 km/h 13.8 mph /  22.2 km/h 97 % 0.04 in /  1.02 mm
12:09 62.7 °F /  17.1 °C 61.8 °F /  16.6 °C 29.75 in /  1007.3 hPa ENE 7.0 mph /  11.3 km/h 12.0 mph /  19.3 km/h 97 % 0.05 in /  1.27 mm
12:14 62.7 °F /  17.1 °C 61.8 °F /  16.6 °C 29.75 in /  1007.3 hPa ENE 5.3 mph /  8.5 km/h 6.9 mph /  11.1 km/h 97 % 0.05 in /  1.27 mm
12:19 62.7 °F /  17.1 °C 61.8 °F /  16.6 °C 29.75 in /  1007.3 hPa NE 9.3 mph /  15 km/h 13.8 mph /  22.2 km/h 97 % 0.05 in /  1.27 mm
12:24 62.5 °F /  16.9 °C 61.6 °F /  16.4 °C 29.75 in /  1007.3 hPa ENE 5.8 mph /  9.3 km/h 11.5 mph /  18.5 km/h 97 % 0.05 in /  1.27 mm
12:29 62.4 °F /  16.9 °C 61.5 °F /  16.4 °C 29.75 in /  1007.3 hPa ENE 6.6 mph /  10.6 km/h 12.7 mph /  20.4 km/h 97 % 0.05 in /  1.27 mm
12:34 62.4 °F /  16.9 °C 61.5 °F /  16.4 °C 29.75 in /  1007.3 hPa NNE 3.8 mph /  6.1 km/h 12.7 mph /  20.4 km/h 97 % 0.06 in /  1.52 mm
12:39 62.3 °F /  16.8 °C 61.4 °F /  16.3 °C 29.76 in /  1007.7 hPa NNE 7.6 mph /  12.2 km/h 12.7 mph /  20.4 km/h 97 % 0.05 in /  1.27 mm
12:44 62.1 °F /  16.7 °C 61.2 °F /  16.2 °C 29.76 in /  1007.7 hPa NE 5.2 mph /  8.4 km/h 10.4 mph /  16.7 km/h 97 % 0.06 in /  1.52 mm
12:49 62.1 °F /  16.7 °C 61.2 °F /  16.2 °C 29.75 in /  1007.3 hPa ENE 7.0 mph /  11.3 km/h 18.4 mph /  29.6 km/h 97 % 0.05 in /  1.27 mm
12:54 62.1 °F /  16.7 °C 61.2 °F /  16.2 °C 29.76 in /  1007.7 hPa NNW 7.3 mph /  11.7 km/h 15.0 mph /  24.1 km/h 97 % 0.06 in /  1.52 mm
12:59 62.0 °F /  16.7 °C 61.1 °F /  16.2 °C 29.76 in /  1007.7 hPa NNE 9.2 mph /  14.8 km/h 13.8 mph /  22.2 km/h 97 % 0.05 in /  1.27 mm
13:04 62.0 °F /  16.7 °C 61.1 °F /  16.2 °C 29.76 in /  1007.7 hPa ENE 5.8 mph /  9.3 km/h 9.2 mph /  14.8 km/h 97 % 0.06 in /  1.52 mm
13:09 61.8 °F /  16.6 °C 60.9 °F /  16.1 °C 29.77 in /  1008 hPa NE 8.2 mph /  13.2 km/h 11.5 mph /  18.5 km/h 97 % 0.05 in /  1.27 mm
13:14 61.6 °F /  16.4 °C 60.4 °F /  15.8 °C 29.77 in /  1008 hPa North 8.9 mph /  14.3 km/h 17.3 mph /  27.8 km/h 96 % 0.06 in /  1.52 mm
13:19 61.4 °F /  16.3 °C 60.2 °F /  15.7 °C 29.77 in /  1008 hPa East 7.6 mph /  12.2 km/h 18.4 mph /  29.6 km/h 96 % 0.05 in /  1.27 mm
13:24 61.4 °F /  16.3 °C 60.5 °F /  15.8 °C 29.77 in /  1008 hPa NNE 5.4 mph /  8.7 km/h 10.4 mph /  16.7 km/h 97 % 0.06 in /  1.52 mm
13:29 61.5 °F /  16.4 °C 60.6 °F /  15.9 °C 29.77 in /  1008 hPa ENE 4.3 mph /  6.9 km/h 7.0 mph /  11.3 km/h 97 % 0.06 in /  1.52 mm
13:30 61.5 °F /  16.4 °C 60.6 °F /  15.9 °C 29.77 in /  1008 hPa NNE 4.8 mph /  7.7 km/h 10.4 mph /  16.7 km/h 97 % 0.05 in /  1.27 mm
13:35 61.6 °F /  16.4 °C 60.7 °F /  15.9 °C 29.77 in /  1008 hPa NNE 4.5 mph /  7.2 km/h 9.2 mph /  14.8 km/h 97 % 0.05 in /  1.27 mm
13:40 61.7 °F /  16.5 °C 60.8 °F /  16 °C 29.78 in /  1008.4 hPa NNE 6.2 mph /  10 km/h 12.0 mph /  19.3 km/h 97 % 0.05 in /  1.27 mm
13:45 61.5 °F /  16.4 °C 60.3 °F /  15.7 °C 29.79 in /  1008.7 hPa NNE 6.6 mph /  10.6 km/h 12.7 mph /  20.4 km/h 96 % 0.05 in /  1.27 mm
13:50 61.5 °F /  16.4 °C 60.3 °F /  15.7 °C 29.78 in /  1008.4 hPa North 9.0 mph /  14.5 km/h 15.0 mph /  24.1 km/h 96 % 0.06 in /  1.52 mm
13:55 61.4 °F /  16.3 °C 60.2 °F /  15.7 °C 29.79 in /  1008.7 hPa North 4.8 mph /  7.7 km/h 12.7 mph /  20.4 km/h 96 % 0.05 in /  1.27 mm
14:00 61.4 °F /  16.3 °C 60.2 °F /  15.7 °C 29.79 in /  1008.7 hPa NE 5.2 mph /  8.4 km/h 11.5 mph /  18.5 km/h 96 % 0.06 in /  1.52 mm
14:05 61.4 °F /  16.3 °C 60.2 °F /  15.7 °C 29.78 in /  1008.4 hPa North 8.8 mph /  14.2 km/h 11.5 mph /  18.5 km/h 96 % 0.05 in /  1.27 mm
14:10 61.5 °F /  16.4 °C 60.3 °F /  15.7 °C 29.79 in /  1008.7 hPa NNW 5.9 mph /  9.5 km/h 10.0 mph /  16.1 km/h 96 % 0.05 in /  1.27 mm
14:15 61.5 °F /  16.4 °C 60.3 °F /  15.7 °C 29.79 in /  1008.7 hPa NE 5.6 mph /  9 km/h 10.4 mph /  16.7 km/h 96 % 0.05 in /  1.27 mm
14:20 61.5 °F /  16.4 °C 60.3 °F /  15.7 °C 29.79 in /  1008.7 hPa NE 7.4 mph /  11.9 km/h 11.5 mph /  18.5 km/h 96 % 0.05 in /  1.27 mm
14:25 61.5 °F /  16.4 °C 60.1 °F /  15.6 °C 29.79 in /  1008.7 hPa NE 4.5 mph /  7.2 km/h 12.7 mph /  20.4 km/h 95 % 0.04 in /  1.02 mm
14:30 61.7 °F /  16.5 °C 60.5 °F /  15.8 °C 29.79 in /  1008.7 hPa North 5.2 mph /  8.4 km/h 11.5 mph /  18.5 km/h 96 % 0.05 in /  1.27 mm
14:31 61.7 °F /  16.5 °C 60.5 °F /  15.8 °C 29.79 in /  1008.7 hPa North 4.7 mph /  7.6 km/h 10.4 mph /  16.7 km/h 96 % 0.05 in /  1.27 mm
14:36 61.8 °F /  16.6 °C 60.6 °F /  15.9 °C 29.80 in /  1009 hPa NNE 3.8 mph /  6.1 km/h 11.5 mph /  18.5 km/h 96 % 0.05 in /  1.27 mm
14:41 61.9 °F /  16.6 °C 60.7 °F /  15.9 °C 29.80 in /  1009 hPa North 5.3 mph /  8.5 km/h 12.7 mph /  20.4 km/h 96 % 0.05 in /  1.27 mm
14:47 62.0 °F /  16.7 °C 60.6 °F /  15.9 °C 29.79 in /  1008.7 hPa NNE 7.1 mph /  11.4 km/h 13.8 mph /  22.2 km/h 95 % 0.05 in /  1.27 mm
14:52 62.1 °F /  16.7 °C 60.7 °F /  15.9 °C 29.80 in /  1009 hPa NNE 5.9 mph /  9.5 km/h 10.4 mph /  16.7 km/h 95 % 0.05 in /  1.27 mm
14:57 62.2 °F /  16.8 °C 60.8 °F /  16 °C 29.80 in /  1009 hPa NE 5.6 mph /  9 km/h 11.5 mph /  18.5 km/h 95 % 0.05 in /  1.27 mm
15:02 62.3 °F /  16.8 °C 60.6 °F /  15.9 °C 29.80 in /  1009 hPa NNE 4.7 mph /  7.6 km/h 8.1 mph /  13 km/h 94 % 0.05 in /  1.27 mm
15:07 62.5 °F /  16.9 °C 60.7 °F /  15.9 °C 29.80 in /  1009 hPa NE 5.3 mph /  8.5 km/h 11.5 mph /  18.5 km/h 94 % 0.05 in /  1.27 mm
15:12 62.7 °F /  17.1 °C 60.9 °F /  16.1 °C 29.79 in /  1008.7 hPa ENE 4.9 mph /  7.9 km/h 12.7 mph /  20.4 km/h 94 % 0.04 in /  1.02 mm
15:17 62.9 °F /  17.2 °C 61.1 °F /  16.2 °C 29.79 in /  1008.7 hPa NE 5.2 mph /  8.4 km/h 8.1 mph /  13 km/h 94 % 0.04 in /  1.02 mm
15:22 63.0 °F /  17.2 °C 61.2 °F /  16.2 °C 29.80 in /  1009 hPa ENE 4.1 mph /  6.6 km/h 8.0 mph /  12.9 km/h 94 % 0.05 in /  1.27 mm
15:27 63.1 °F /  17.3 °C 61.3 °F /  16.3 °C 29.80 in /  1009 hPa ENE 4.6 mph /  7.4 km/h 9.2 mph /  14.8 km/h 94 % 0.04 in /  1.02 mm
15:32 63.1 °F /  17.3 °C 61.0 °F /  16.1 °C 29.80 in /  1009 hPa NNE 4.9 mph /  7.9 km/h 9.0 mph /  14.5 km/h 93 % 0.04 in /  1.02 mm
15:37 63.3 °F /  17.4 °C 61.2 °F /  16.2 °C 29.80 in /  1009 hPa North 5.0 mph /  8 km/h 10.0 mph /  16.1 km/h 93 % 0.03 in /  0.76 mm
15:42 63.4 °F /  17.4 °C 61.3 °F /  16.3 °C 29.80 in /  1009 hPa ENE 4.5 mph /  7.2 km/h 10.4 mph /  16.7 km/h 93 % 0.04 in /  1.02 mm
15:47 63.4 °F /  17.4 °C 61.3 °F /  16.3 °C 29.80 in /  1009 hPa ENE 4.3 mph /  6.9 km/h 7.0 mph /  11.3 km/h 93 % 0.04 in /  1.02 mm
15:52 63.5 °F /  17.5 °C 61.4 °F /  16.3 °C 29.80 in /  1009 hPa East 3.6 mph /  5.8 km/h 5.8 mph /  9.3 km/h 93 % 0.03 in /  0.76 mm
15:57 63.6 °F /  17.6 °C 61.5 °F /  16.4 °C 29.80 in /  1009 hPa East 3.0 mph /  4.8 km/h 4.6 mph /  7.4 km/h 93 % 0.03 in /  0.76 mm
16:02 63.7 °F /  17.6 °C 61.3 °F /  16.3 °C 29.81 in /  1009.4 hPa ENE 3.4 mph /  5.5 km/h 6.9 mph /  11.1 km/h 92 % 0.03 in /  0.76 mm
16:07 63.8 °F /  17.7 °C 61.4 °F /  16.3 °C 29.81 in /  1009.4 hPa ENE 3.8 mph /  6.1 km/h 9.2 mph /  14.8 km/h 92 % 0.03 in /  0.76 mm
16:12 63.9 °F /  17.7 °C 61.5 °F /  16.4 °C 29.81 in /  1009.4 hPa NE 3.3 mph /  5.3 km/h 6.9 mph /  11.1 km/h 92 % 0.03 in /  0.76 mm
16:17 64.0 °F /  17.8 °C 61.6 °F /  16.4 °C 29.81 in /  1009.4 hPa NE 5.4 mph /  8.7 km/h 8.1 mph /  13 km/h 92 % 0.03 in /  0.76 mm
16:22 64.1 °F /  17.8 °C 61.7 °F /  16.5 °C 29.81 in /  1009.4 hPa NNE 3.3 mph /  5.3 km/h 8.1 mph /  13 km/h 92 % 0.02 in /  0.51 mm
16:28 64.2 °F /  17.9 °C 61.5 °F /  16.4 °C 29.81 in /  1009.4 hPa NNE 5.8 mph /  9.3 km/h 9.0 mph /  14.5 km/h 91 % 0.02 in /  0.51 mm
16:33 64.2 °F /  17.9 °C 61.5 °F /  16.4 °C 29.81 in /  1009.4 hPa NNE 3.8 mph /  6.1 km/h 10.0 mph /  16.1 km/h 91 % 0.03 in /  0.76 mm
16:38 64.4 °F /  18 °C 62.0 °F /  16.7 °C 29.81 in /  1009.4 hPa NNE 2.9 mph /  4.7 km/h 6.0 mph /  9.7 km/h 92 % 0.03 in /  0.76 mm
16:43 64.5 °F /  18.1 °C 62.1 °F /  16.7 °C 29.81 in /  1009.4 hPa NE 3.7 mph /  6 km/h 5.8 mph /  9.3 km/h 92 % 0.02 in /  0.51 mm
16:48 64.7 °F /  18.2 °C 62.0 °F /  16.7 °C 29.81 in /  1009.4 hPa NNE 4.1 mph /  6.6 km/h 8.1 mph /  13 km/h 91 % 0.02 in /  0.51 mm
16:53 64.8 °F /  18.2 °C 61.8 °F /  16.6 °C 29.81 in /  1009.4 hPa NNE 3.0 mph /  4.8 km/h 6.9 mph /  11.1 km/h 90 % 0.02 in /  0.51 mm
16:58 64.9 °F /  18.3 °C 62.2 °F /  16.8 °C 29.81 in /  1009.4 hPa NNE 2.8 mph /  4.5 km/h 6.9 mph /  11.1 km/h 91 % 0.02 in /  0.51 mm
17:03 65.0 °F /  18.3 °C 62.3 °F /  16.8 °C 29.81 in /  1009.4 hPa NE 3.3 mph /  5.3 km/h 9.2 mph /  14.8 km/h 91 % 0.02 in /  0.51 mm
17:08 65.1 °F /  18.4 °C 62.1 °F /  16.7 °C 29.81 in /  1009.4 hPa ENE 5.7 mph /  9.2 km/h 9.2 mph /  14.8 km/h 90 % 0.02 in /  0.51 mm
17:13 65.2 °F /  18.4 °C 62.2 °F /  16.8 °C 29.81 in /  1009.4 hPa NE 4.4 mph /  7.1 km/h 8.1 mph /  13 km/h 90 % 0.02 in /  0.51 mm
17:18 65.2 °F /  18.4 °C 61.9 °F /  16.6 °C 29.81 in /  1009.4 hPa NNE 4.3 mph /  6.9 km/h 6.9 mph /  11.1 km/h 89 % 0.02 in /  0.51 mm
17:23 65.2 °F /  18.4 °C 61.9 °F /  16.6 °C 29.81 in /  1009.4 hPa North 4.7 mph /  7.6 km/h 8.1 mph /  13 km/h 89 % 0.02 in /  0.51 mm
17:28 65.2 °F /  18.4 °C 61.6 °F /  16.4 °C 29.81 in /  1009.4 hPa East 2.9 mph /  4.7 km/h 6.9 mph /  11.1 km/h 88 % 0.02 in /  0.51 mm
17:33 65.3 °F /  18.5 °C 62.0 °F /  16.7 °C 29.82 in /  1009.7 hPa ENE 3.0 mph /  4.8 km/h 5.0 mph /  8 km/h 89 % 0.01 in /  0.25 mm
17:38 65.3 °F /  18.5 °C 61.7 °F /  16.5 °C 29.81 in /  1009.4 hPa ENE 3.6 mph /  5.8 km/h 6.9 mph /  11.1 km/h 88 % 0.02 in /  0.51 mm
17:43 65.4 °F /  18.6 °C 61.8 °F /  16.6 °C 29.82 in /  1009.7 hPa NE 1.2 mph /  1.9 km/h 3.5 mph /  5.6 km/h 88 % 0.02 in /  0.51 mm
17:48 65.4 °F /  18.6 °C 61.4 °F /  16.3 °C 29.82 in /  1009.7 hPa NE 3.1 mph /  5 km/h 6.9 mph /  11.1 km/h 87 % 0.02 in /  0.51 mm
17:53 65.4 °F /  18.6 °C 61.4 °F /  16.3 °C 29.82 in /  1009.7 hPa ENE 1.5 mph /  2.4 km/h 3.5 mph /  5.6 km/h 87 % 0.02 in /  0.51 mm
17:58 65.4 °F /  18.6 °C 61.8 °F /  16.6 °C 29.82 in /  1009.7 hPa ENE 2.4 mph /  3.9 km/h 4.6 mph /  7.4 km/h 88 % 0.02 in /  0.51 mm
18:04 65.4 °F /  18.6 °C 61.8 °F /  16.6 °C 29.82 in /  1009.7 hPa NE 3.4 mph /  5.5 km/h 4.6 mph /  7.4 km/h 88 % 0.01 in /  0.25 mm
18:08 65.4 °F /  18.6 °C 61.8 °F /  16.6 °C 29.83 in /  1010 hPa ENE 3.2 mph /  5.1 km/h 3.5 mph /  5.6 km/h 88 % 0.01 in /  0.25 mm
18:13 65.4 °F /  18.6 °C 61.4 °F /  16.3 °C 29.83 in /  1010 hPa NE 2.1 mph /  3.4 km/h 3.5 mph /  5.6 km/h 87 % 0.02 in /  0.51 mm
18:18 65.3 °F /  18.5 °C 61.3 °F /  16.3 °C 29.83 in /  1010 hPa NNE 2.0 mph /  3.2 km/h 6.9 mph /  11.1 km/h 87 % 0.02 in /  0.51 mm
18:24 65.2 °F /  18.4 °C 61.2 °F /  16.2 °C 29.83 in /  1010 hPa ENE 3.5 mph /  5.6 km/h 4.0 mph /  6.4 km/h 87 % 0.02 in /  0.51 mm
18:29 65.2 °F /  18.4 °C 60.9 °F /  16.1 °C 29.83 in /  1010 hPa ENE 3.8 mph /  6.1 km/h 9.2 mph /  14.8 km/h 86 % 0.02 in /  0.51 mm
18:34 65.2 °F /  18.4 °C 60.9 °F /  16.1 °C 29.83 in /  1010 hPa NE 1.9 mph /  3.1 km/h 5.8 mph /  9.3 km/h 86 % 0.02 in /  0.51 mm
18:39 65.1 °F /  18.4 °C 61.1 °F /  16.2 °C 29.84 in /  1010.4 hPa NNE 4.0 mph /  6.4 km/h 6.9 mph /  11.1 km/h 87 % 0.01 in /  0.25 mm
18:44 65.0 °F /  18.3 °C 61.0 °F /  16.1 °C 29.85 in /  1010.7 hPa North 5.0 mph /  8 km/h 6.9 mph /  11.1 km/h 87 % 0.01 in /  0.25 mm
18:49 65.0 °F /  18.3 °C 61.0 °F /  16.1 °C 29.84 in /  1010.4 hPa NNE 3.6 mph /  5.8 km/h 5.0 mph /  8 km/h 87 % 0.01 in /  0.25 mm
18:54 64.9 °F /  18.3 °C 60.9 °F /  16.1 °C 29.84 in /  1010.4 hPa NE 1.9 mph /  3.1 km/h 4.6 mph /  7.4 km/h 87 % 0.01 in /  0.25 mm
18:59 64.9 °F /  18.3 °C 60.9 °F /  16.1 °C 29.85 in /  1010.7 hPa NE 3.7 mph /  6 km/h 6.0 mph /  9.7 km/h 87 % 0.02 in /  0.51 mm
19:04 64.9 °F /  18.3 °C 61.3 °F /  16.3 °C 29.84 in /  1010.4 hPa NNE 0.9 mph /  1.4 km/h 2.3 mph /  3.7 km/h 88 % 0.02 in /  0.51 mm
19:09 64.7 °F /  18.2 °C 60.7 °F /  15.9 °C 29.84 in /  1010.4 hPa NE 2.3 mph /  3.7 km/h 6.9 mph /  11.1 km/h 87 % 0.02 in /  0.51 mm
19:14 64.6 °F /  18.1 °C 60.6 °F /  15.9 °C 29.85 in /  1010.7 hPa NE 1.3 mph /  2.1 km/h 4.0 mph /  6.4 km/h 87 % 0.01 in /  0.25 mm
19:19 64.5 °F /  18.1 °C 60.9 °F /  16.1 °C 29.85 in /  1010.7 hPa NNE 2.3 mph /  3.7 km/h 3.5 mph /  5.6 km/h 88 % 0.01 in /  0.25 mm
19:24 64.5 °F /  18.1 °C 60.9 °F /  16.1 °C 29.85 in /  1010.7 hPa NNE 0.7 mph /  1.1 km/h 4.6 mph /  7.4 km/h 88 % 0.01 in /  0.25 mm
19:29 64.4 °F /  18 °C 60.8 °F /  16 °C 29.85 in /  1010.7 hPa NE 3.1 mph /  5 km/h 6.0 mph /  9.7 km/h 88 % 0.01 in /  0.25 mm
19:34 64.3 °F /  17.9 °C 60.7 °F /  15.9 °C 29.85 in /  1010.7 hPa ENE 5.0 mph /  8 km/h 9.2 mph /  14.8 km/h 88 % 0.01 in /  0.25 mm
19:39 64.2 °F /  17.9 °C 60.2 °F /  15.7 °C 29.85 in /  1010.7 hPa ENE 2.9 mph /  4.7 km/h 8.1 mph /  13 km/h 87 % 0.01 in /  0.25 mm
19:45 64.1 °F /  17.8 °C 60.2 °F /  15.7 °C 29.86 in /  1011.1 hPa ENE 3.3 mph /  5.3 km/h 6.9 mph /  11.1 km/h 87 % 0.02 in /  0.51 mm
19:50 64.1 °F /  17.8 °C 60.5 °F /  15.8 °C 29.86 in /  1011.1 hPa NE 2.2 mph /  3.5 km/h 4.6 mph /  7.4 km/h 88 % 0.02 in /  0.51 mm
19:55 64.0 °F /  17.8 °C 60.4 °F /  15.8 °C 29.86 in /  1011.1 hPa NE 1.9 mph /  3.1 km/h 6.9 mph /  11.1 km/h 88 % 0.02 in /  0.51 mm
20:00 63.9 °F /  17.7 °C 60.3 °F /  15.7 °C 29.86 in /  1011.1 hPa NE 2.1 mph /  3.4 km/h 4.6 mph /  7.4 km/h 88 % 0.01 in /  0.25 mm
20:05 63.9 °F /  17.7 °C 60.3 °F /  15.7 °C 29.85 in /  1010.7 hPa East 3.8 mph /  6.1 km/h 5.8 mph /  9.3 km/h 88 % 0.01 in /  0.25 mm
20:10 63.7 °F /  17.6 °C 59.8 °F /  15.4 °C 29.86 in /  1011.1 hPa NE 3.1 mph /  5 km/h 8.1 mph /  13 km/h 87 % 0.01 in /  0.25 mm
20:15 63.7 °F /  17.6 °C 60.1 °F /  15.6 °C 29.85 in /  1010.7 hPa NE 2.2 mph /  3.5 km/h 6.9 mph /  11.1 km/h 88 % 0.01 in /  0.25 mm
20:20 63.6 °F /  17.6 °C 60.0 °F /  15.6 °C 29.85 in /  1010.7 hPa NE 6.9 mph /  11.1 km/h 11.5 mph /  18.5 km/h 88 % 0.01 in /  0.25 mm
20:25 63.5 °F /  17.5 °C 59.9 °F /  15.5 °C 29.85 in /  1010.7 hPa ENE 3.7 mph /  6 km/h 6.9 mph /  11.1 km/h 88 % 0.01 in /  0.25 mm
20:30 63.5 °F /  17.5 °C 59.9 °F /  15.5 °C 29.86 in /  1011.1 hPa ENE 3.9 mph /  6.3 km/h 9.2 mph /  14.8 km/h 88 % 0.01 in /  0.25 mm
20:33 63.5 °F /  17.5 °C 59.6 °F /  15.3 °C 29.86 in /  1011.1 hPa ENE 3.3 mph /  5.3 km/h 8.0 mph /  12.9 km/h 87 % 0.01 in /  0.25 mm
20:38 63.4 °F /  17.4 °C 59.5 °F /  15.3 °C 29.85 in /  1010.7 hPa NE 5.9 mph /  9.5 km/h 10.4 mph /  16.7 km/h 87 % 0.02 in /  0.51 mm
20:43 63.4 °F /  17.4 °C 59.8 °F /  15.4 °C 29.85 in /  1010.7 hPa East 3.7 mph /  6 km/h 9.2 mph /  14.8 km/h 88 % 0.02 in /  0.51 mm
20:48 63.3 °F /  17.4 °C 59.7 °F /  15.4 °C 29.85 in /  1010.7 hPa ENE 7.1 mph /  11.4 km/h 9.2 mph /  14.8 km/h 88 % 0.01 in /  0.25 mm
20:53 63.3 °F /  17.4 °C 59.7 °F /  15.4 °C 29.85 in /  1010.7 hPa East 4.3 mph /  6.9 km/h 8.1 mph /  13 km/h 88 % 0.01 in /  0.25 mm
20:58 63.2 °F /  17.3 °C 59.3 °F /  15.2 °C 29.85 in /  1010.7 hPa ENE 4.2 mph /  6.8 km/h 8.1 mph /  13 km/h 87 % 0.01 in /  0.25 mm
21:03 63.1 °F /  17.3 °C 59.5 °F /  15.3 °C 29.86 in /  1011.1 hPa NNE 5.8 mph /  9.3 km/h 8.1 mph /  13 km/h 88 % 0.01 in /  0.25 mm
21:08 63.1 °F /  17.3 °C 59.5 °F /  15.3 °C 29.86 in /  1011.1 hPa NE 3.1 mph /  5 km/h 5.8 mph /  9.3 km/h 88 % 0.01 in /  0.25 mm
21:13 63.1 °F /  17.3 °C 59.5 °F /  15.3 °C 29.86 in /  1011.1 hPa ENE 4.8 mph /  7.7 km/h 6.9 mph /  11.1 km/h 88 % 0.01 in /  0.25 mm
21:18 63.0 °F /  17.2 °C 59.4 °F /  15.2 °C 29.86 in /  1011.1 hPa NE 2.7 mph /  4.3 km/h 9.2 mph /  14.8 km/h 88 % 0.01 in /  0.25 mm
21:23 63.0 °F /  17.2 °C 59.4 °F /  15.2 °C 29.86 in /  1011.1 hPa NE 4.8 mph /  7.7 km/h 6.9 mph /  11.1 km/h 88 % 0.01 in /  0.25 mm
21:28 62.9 °F /  17.2 °C 59.3 °F /  15.2 °C 29.86 in /  1011.1 hPa NE 5.6 mph /  9 km/h 8.1 mph /  13 km/h 88 % 0.01 in /  0.25 mm
21:33 62.9 °F /  17.2 °C 59.3 °F /  15.2 °C 29.86 in /  1011.1 hPa NE 5.2 mph /  8.4 km/h 8.1 mph /  13 km/h 88 % 0.01 in /  0.25 mm
21:38 62.8 °F /  17.1 °C 59.2 °F /  15.1 °C 29.87 in /  1011.4 hPa ENE 3.5 mph /  5.6 km/h 6.9 mph /  11.1 km/h 88 % 0.00 in /  0 mm
21:43 62.8 °F /  17.1 °C 59.2 °F /  15.1 °C 29.87 in /  1011.4 hPa ENE 4.3 mph /  6.9 km/h 5.8 mph /  9.3 km/h 88 % 0.01 in /  0.25 mm
21:48 62.8 °F /  17.1 °C 59.2 °F /  15.1 °C 29.87 in /  1011.4 hPa ENE 2.7 mph /  4.3 km/h 8.1 mph /  13 km/h 88 % 0.01 in /  0.25 mm
21:53 62.8 °F /  17.1 °C 59.5 °F /  15.3 °C 29.88 in /  1011.7 hPa NE 5.5 mph /  8.9 km/h 8.0 mph /  12.9 km/h 89 % 0.01 in /  0.25 mm
21:58 62.9 °F /  17.2 °C 59.6 °F /  15.3 °C 29.88 in /  1011.7 hPa ENE 4.6 mph /  7.4 km/h 8.1 mph /  13 km/h 89 % 0.01 in /  0.25 mm
22:03 62.9 °F /  17.2 °C 59.6 °F /  15.3 °C 29.88 in /  1011.7 hPa ENE 5.5 mph /  8.9 km/h 8.0 mph /  12.9 km/h 89 % 0.01 in /  0.25 mm
22:08 63.0 °F /  17.2 °C 59.7 °F /  15.4 °C 29.89 in /  1012.1 hPa ENE 3.1 mph /  5 km/h 4.6 mph /  7.4 km/h 89 % 0.01 in /  0.25 mm
22:13 63.0 °F /  17.2 °C 59.7 °F /  15.4 °C 29.88 in /  1011.7 hPa ENE 3.8 mph /  6.1 km/h 10.4 mph /  16.7 km/h 89 % 0.01 in /  0.25 mm
22:18 63.1 °F /  17.3 °C 60.1 °F /  15.6 °C 29.89 in /  1012.1 hPa East 2.0 mph /  3.2 km/h 3.5 mph /  5.6 km/h 90 % 0.01 in /  0.25 mm
22:23 63.1 °F /  17.3 °C 59.8 °F /  15.4 °C 29.89 in /  1012.1 hPa ENE 7.2 mph /  11.6 km/h 8.1 mph /  13 km/h 89 % 0.01 in /  0.25 mm
22:29 63.1 °F /  17.3 °C 59.8 °F /  15.4 °C 29.89 in /  1012.1 hPa ENE 2.8 mph /  4.5 km/h 9.2 mph /  14.8 km/h 89 % 0.01 in /  0.25 mm
22:34 63.1 °F /  17.3 °C 59.8 °F /  15.4 °C 29.89 in /  1012.1 hPa ENE 5.5 mph /  8.9 km/h 9.2 mph /  14.8 km/h 89 % 0.01 in /  0.25 mm
22:39 63.1 °F /  17.3 °C 59.8 °F /  15.4 °C 29.89 in /  1012.1 hPa East 5.7 mph /  9.2 km/h 11.5 mph /  18.5 km/h 89 % 0.01 in /  0.25 mm
22:44 63.1 °F /  17.3 °C 59.5 °F /  15.3 °C 29.88 in /  1011.7 hPa ENE 5.7 mph /  9.2 km/h 10.4 mph /  16.7 km/h 88 % 0.00 in /  0 mm
22:49 63.2 °F /  17.3 °C 59.9 °F /  15.5 °C 29.89 in /  1012.1 hPa ENE 4.9 mph /  7.9 km/h 9.2 mph /  14.8 km/h 89 % 0.00 in /  0 mm
22:54 63.2 °F /  17.3 °C 59.9 °F /  15.5 °C 29.89 in /  1012.1 hPa ENE 4.4 mph /  7.1 km/h 10.4 mph /  16.7 km/h 89 % 0.01 in /  0.25 mm
22:59 63.1 °F /  17.3 °C 59.8 °F /  15.4 °C 29.89 in /  1012.1 hPa ENE 5.5 mph /  8.9 km/h 9.0 mph /  14.5 km/h 89 % 0.01 in /  0.25 mm
23:04 63.1 °F /  17.3 °C 59.5 °F /  15.3 °C 29.89 in /  1012.1 hPa East 7.1 mph /  11.4 km/h 11.5 mph /  18.5 km/h 88 % 0.01 in /  0.25 mm
23:09 63.2 °F /  17.3 °C 59.9 °F /  15.5 °C 29.89 in /  1012.1 hPa ENE 5.3 mph /  8.5 km/h 6.9 mph /  11.1 km/h 89 % 0.01 in /  0.25 mm
23:14 63.2 °F /  17.3 °C 59.9 °F /  15.5 °C 29.89 in /  1012.1 hPa East 4.2 mph /  6.8 km/h 5.8 mph /  9.3 km/h 89 % 0.01 in /  0.25 mm
23:19 63.2 °F /  17.3 °C 59.9 °F /  15.5 °C 29.90 in /  1012.4 hPa ENE 4.4 mph /  7.1 km/h 8.1 mph /  13 km/h 89 % 0.01 in /  0.25 mm
23:24 63.2 °F /  17.3 °C 59.6 °F /  15.3 °C 29.90 in /  1012.4 hPa East 3.0 mph /  4.8 km/h 8.1 mph /  13 km/h 88 % 0.01 in /  0.25 mm
23:29 63.2 °F /  17.3 °C 59.9 °F /  15.5 °C 29.90 in /  1012.4 hPa ENE 2.4 mph /  3.9 km/h 4.6 mph /  7.4 km/h 89 % 0.01 in /  0.25 mm
23:35 63.2 °F /  17.3 °C 59.9 °F /  15.5 °C 29.91 in /  1012.8 hPa NE 4.0 mph /  6.4 km/h 6.9 mph /  11.1 km/h 89 % 0.01 in /  0.25 mm
23:40 63.3 °F /  17.4 °C 60.0 °F /  15.6 °C 29.91 in /  1012.8 hPa ENE 4.3 mph /  6.9 km/h 5.8 mph /  9.3 km/h 89 % 0.01 in /  0.25 mm
23:45 63.3 °F /  17.4 °C 60.0 °F /  15.6 °C 29.91 in /  1012.8 hPa ENE 3.8 mph /  6.1 km/h 8.1 mph /  13 km/h 89 % 0.01 in /  0.25 mm
23:50 63.3 °F /  17.4 °C 60.0 °F /  15.6 °C 29.92 in /  1013.1 hPa NE 2.3 mph /  3.7 km/h 9.2 mph /  14.8 km/h 89 % 0.01 in /  0.25 mm
23:55 63.3 °F /  17.4 °C 60.0 °F /  15.6 °C 29.91 in /  1012.8 hPa ENE 3.2 mph /  5.1 km/h 9.2 mph /  14.8 km/h 89 % 0.00 in /  0 mm
Crab Meadow Weather
Compliments of Weather Underground - 3 mb

Script developed by  Jim McMurry - jmcmurry@mwt.net Adapted for the template by  Wim van der Kuil - Leuven-Template.eu

Weather Terms: Freezing Rain/Freezing Drizzle - Rain or drizzle which falls in liquid form and freezes on impact with cold surfaces to form a glaze on the ground and exposed objects.